Regional Weather Roundup
Issued by NWS

Home | Current Version | Previous Version | Text Only | Print | Product List | Glossary On
Versions: 1 2 3 4 5 6 7 8 9 10 11 12 13 14 15 16 17 18 19 20 21 22 23 24 25 26 27 28 29 30 31 32 33 34 35 36 37 38 39 40 41 42 43 44 45 46 47 48 49 50
000
ASUS43 KMKX 081220
RWRWI

WISCONSIN REGIONAL WEATHER ROUNDUP
NATIONAL WEATHER SERVICE MILWAUKEE/SULLIVAN WI
600 AM CST MON FEB 08 2016

NOTE: "FAIR" INDICATES FEW OR NO CLOUDS BELOW 12,000 FEET WITH NO
SIGNIFICANT WEATHER AND/OR OBSTRUCTIONS TO VISIBILITY.

WIZ001-002-006>008-014>016-023>028-081300-
NORTHWEST WISCONSIN

CITY           SKY/WX    TMP DP  RH WIND       PRES   REMARKS
SUPERIOR ARPT  CLOUDY    13   6  73 NW10G23   29.83R WCI   0
6HR MIN TEMP:  13; 6HR MAX TEMP:  19;

ASHLAND        CLOUDY    20  17  88 NW9       29.74R WCI   9
6HR MIN TEMP:  20; 6HR MAX TEMP:  28; 6HR PCP:  0.07;

HAYWARD        LGT SNOW  13   7  77 NW8       29.74R WCI   2
6HR MIN TEMP:  13; 6HR MAX TEMP:  22; 6HR PCP:  0.01;

SIREN          FLURRIES  12   6  77 NW13G18   29.81R WCI  -3
6HR MIN TEMP:  12; 6HR MAX TEMP:  18;

CUMBERLAND     CLOUDY    12   7  79 NW18G24   29.74R HAZE    WCI  -5
RICE LAKE      LGT SNOW  14   8  78 NW14      29.76R WCI  -1
6HR MIN TEMP:  14; 6HR MAX TEMP:  20;

CHETEK         LGT SNOW  14  10  83 NW5       29.73R WCI   6
6HR MIN TEMP:  14; 6HR MAX TEMP:  20;

LADYSMITH      CLOUDY    18  14  84 NW17G23   29.69R FOG     WCI   3
6HR MIN TEMP:  18; 6HR MAX TEMP:  24;

EAU CLAIRE     LGT SNOW  15   9  76 NW9       29.73R WCI   3
6HR MIN TEMP:  16; 6HR MAX TEMP:  22; 6HR PCP: TRACE;

MENOMONIE      LGT SNOW  16  10  76 W15G24    29.76R WCI   1
6HR MIN TEMP:  16; 6HR MAX TEMP:  21;

NEW RICHMOND   FLURRIES  13   7  76 NW16G23   29.80R WCI  -3
6HR MIN TEMP:  13; 6HR MAX TEMP:  18;

OSCEOLA        FLURRIES  13   7  76 NW15      29.86R WCI  -2
6HR MIN TEMP:  13; 6HR MAX TEMP:  18;

$$

WIZ003>005-009-010-017-018-081300-
NORTH CENTRAL WISCONSIN

CITY           SKY/WX    TMP DP  RH WIND       PRES   REMARKS
MANITOWISH WTR FLURRIES  20  16  84 N9        29.61R WCI   9
6HR MIN TEMP:  20; 6HR MAX TEMP:  28;

ARBOR VITAE    LGT SNOW  23  19  86 N16G24    29.60R WCI  10
6HR MIN TEMP:  23; 6HR MAX TEMP:  32;

WOODRUFF       LGT SNOW  23  19  86 N16G24    29.60R WCI  10
6HR MIN TEMP:  23; 6HR MAX TEMP:  32;

RHINELANDER    LGT SNOW  25  22  88 N10G16    29.56R FOG     WCI  15
6HR MIN TEMP:  24; 6HR MAX TEMP:  30; 6HR PCP:  0.01;

EAGLE RIVER    FLURRIES  24  21  91 N13       29.57R WCI  12
LAND O LAKES   LGT SNOW  21  18  88 N15       29.59R WCI   8
6HR MIN TEMP:  21; 6HR MAX TEMP:  31;

PHILLIPS       CLOUDY    22  19  88 N8        29.62R WCI  13
6HR MIN TEMP:  22; 6HR MAX TEMP:  25; 6HR PCP:  0.01;

TOMAHAWK       CLOUDY    24  21  87 NW8       29.58R WCI  16
6HR MIN TEMP:  22; 6HR MAX TEMP:  28;

MEDFORD        FLURRIES  19  17  90 NW12      29.60R WCI   7
6HR MIN TEMP:  19; 6HR MAX TEMP:  25;

MERRILL        CLOUDY    24  20  85 NW6       29.59R WCI  17
6HR MIN TEMP:  24; 6HR MAX TEMP:  30;

$$

WIZ029-030-035-036-043>047-081300-
CENTRAL WISCONSIN

CITY           SKY/WX    TMP DP  RH WIND       PRES   REMARKS
WAUSAU         CLOUDY    24  18  77 NW12      29.58R WCI  13
6HR MIN TEMP:  24; 6HR MAX TEMP:  32; 6HR PCP: TRACE;

MOSINEE        CLOUDY    21  19  93 NW10G17   29.60R WCI  10
MARSHFIELD     CLOUDY    18  12  77 NW15G21   29.61R WCI   4
6HR MIN TEMP:  18; 6HR MAX TEMP:  28; 6HR PCP: TRACE;

STEVENS POINT  CLOUDY    21  16  83 NW8       29.61R WCI  11
6HR MIN TEMP:  21; 6HR MAX TEMP:  30;

WAUPACA        CLOUDY    28  22  76 W10       29.61R WCI  19
6HR MIN TEMP:  28; 6HR MAX TEMP:  37;

WAUTOMA        CLOUDY    25  19  77 NW12      29.63R WCI  14
6HR MIN TEMP:  24; 6HR MAX TEMP:  35; 6HR PCP: TRACE;

WISC RAPIDS    CLOUDY    20  13  74 NW13      29.65R WCI   7
6HR MIN TEMP:  20; 6HR MAX TEMP:  31; 6HR PCP: TRACE;

CAMP DOUGLAS   FLURRIES  19  19 100 NW13      29.66R WCI   7
                                      6HR PCP: TRACE;

$$

WIZ011>013-019>022-031-037>040-048>050-081300-
NORTHEAST WISCONSIN

CITY           SKY/WX    TMP DP  RH WIND       PRES   REMARKS
ANTIGO         CLOUDY    24  22  89 NW8       29.56R WCI  15
6HR MIN TEMP:  24; 6HR MAX TEMP:  31;

SHAWANO        CLOUDY    32  26  76 NW9       29.57R WCI  25
6HR MIN TEMP:  32; 6HR MAX TEMP:  37;

OCONTO         CLOUDY    31  31 100 CALM      29.56S
6HR MIN TEMP:  31; 6HR MAX TEMP:  35;

STURGEON BAY   CLOUDY    32  27  80 W3        29.58S
6HR MIN TEMP:  32; 6HR MAX TEMP:  36;

GREEN BAY      CLOUDY    32  27  81 W8        29.57R WCI  25
6HR MIN TEMP:  32; 6HR MAX TEMP:  35; 6HR PCP: TRACE;

MANITOWOC      MIX PCPN  33  31  92 W3        29.57R
6HR MIN TEMP:  33; 6HR MAX TEMP:  34; 6HR PCP: TRACE;

APPLETON       CLOUDY    28  23  80 W13       29.56R WCI  18
CLINTONVILLE   CLOUDY    30  23  74 NW12      29.58R WCI  21
OSHKOSH        CLOUDY    28  21  75 W12       29.59R WCI  18
6HR MIN TEMP:  28; 6HR MAX TEMP:  34; 6HR PCP:  0.01;

$$

WIZ032>034-041-042-053>061-081300-
SOUTHWEST WISCONSIN

CITY           SKY/WX    TMP DP  RH WIND       PRES   REMARKS
LA CROSSE      FLURRIES  19  12  74 NW14      29.73R WCI   6
6HR MIN TEMP:  18; 6HR MAX TEMP:  26; 6HR PCP: TRACE;

SPARTA         LGT SNOW  18  14  84 W7        29.71R WCI   9
6HR MIN TEMP:  18; 6HR MAX TEMP:  28;

VIROQUA        CLOUDY    16  13  88 NW13      29.67R WCI   2
6HR MIN TEMP:  16; 6HR MAX TEMP:  27;

BOSCOBEL       LGT SNOW  20  15  81 NW6       29.72R WCI  12
6HR MIN TEMP:  20; 6HR MAX TEMP:  32; 6HR PCP: TRACE;

PRAIRIE DU CHI CLOUDY    19  10  68 NW12G17   29.74R WCI   6
6HR MIN TEMP:  19; 6HR MAX TEMP:  30;

PLATTEVILLE    PTCLDY    20  17  86 NW15      29.67R WCI   6
6HR MIN TEMP:  20; 6HR MAX TEMP:  32;

$$

WIZ056-057-062-063-064-067-068-081300-
SOUTH CENTRAL WISCONSIN

CITY           SKY/WX    TMP DP  RH WIND       PRES   REMARKS
REEDSBURG      LGT SNOW  20  16  84 NW8G20    29.65R WCI  10
6HR MIN TEMP:  20; 6HR MAX TEMP:  33;

BARABOO/DELLS  CLOUDY    21  16  79 NW10      29.64R WCI  10
6HR MIN TEMP:  21; 6HR MAX TEMP:  33;

LONE ROCK      LGT SNOW  22  16  78 NW13      29.68R WCI  10
6HR MIN TEMP:  22; 6HR MAX TEMP:  34; 6HR PCP: TRACE;

MINERAL POINT  LGT SNOW  21  19  93 W9G17     29.65R WCI  11
MADISON        FLURRIES  25  23  92 W8        29.62R WCI  16
6HR MIN TEMP:  25; 6HR MAX TEMP:  33; 6HR PCP: TRACE;

MIDDLETON      CLOUDY    26  22  83 NW14      29.63R WCI  14
6HR MIN TEMP:  26; 6HR MAX TEMP:  35;

WATERTOWN      CLOUDY    28  25  87 NW12      29.59S WCI  18
6HR MIN TEMP:  28; 6HR MAX TEMP:  32;

MONROE         CLOUDY    25  19  80 W16       29.62R WCI  12
JANESVILLE     CLOUDY    28  21  74 W16       29.62R WCI  17
$$

WIZ051-052-058>065-066-070>072-081300-
SOUTHEAST WISCONSIN

CITY           SKY/WX    TMP DP  RH WIND       PRES   REMARKS
MILWAUKEE      LGT SNOW  32  29  88 W6        29.58S WCI  26
6HR MIN TEMP:  30; 6HR MAX TEMP:  32; 6HR PCP: TRACE;

WAUKESHA       CLOUDY    28  27  93 W12       29.59R WCI  18
MILWAUKEE/TIMM LGT SNOW  32  30  93 W8        29.59R WCI  25
RACINE         CLOUDY    32  29  88 SW8       29.60S WCI  25
6HR MIN TEMP:  29; 6HR MAX TEMP:  33;

BURLINGTON     CLOUDY    29  27  92 W7        29.60R WCI  22
6HR MIN TEMP:  28; 6HR MAX TEMP:  31;

KENOSHA        CLOUDY    32  29  88 W12       29.59S FOG     WCI  23
6HR MIN TEMP:  29; 6HR MAX TEMP:  32;

FOND DU LAC    CLOUDY    29  22  75 NW12      29.59R WCI  19
6HR MIN TEMP:  29; 6HR MAX TEMP:  33; 6HR PCP:  0.01;

SHEBOYGAN      CLOUDY    31  27  85 NW12      29.57R WCI  22
6HR MIN TEMP:  27; 6HR MAX TEMP:  33;

WEST BEND      CLOUDY    30  27  86 NW8       29.58R WCI  23
JUNEAU         CLOUDY    28  23  82 NW5       29.60R WCI  22
6HR MIN TEMP:  28; 6HR MAX TEMP:  32;

$$

LSZ147-162-081300-
LAKE SUPERIOR

STATION/POSITION TIME  TEMP    WIND        PRES    WAVE
                       AIR SEA DIR/SP/G            HT/PER
                 (UTC) (F)     (DEG/KT/KT) (MB)    (FT/S)
DEVILS ISLAND    1200   17     340/ 19/ 22 1008.8R
PORT WING        1100   20     320/ 16/ 20 1008.1
SAXON HARBOR     1100   23                 1005.8R
$$

LMZ867-665-643>646-081300-
LAKE MICHIGAN

STATION/POSITION TIME  TEMP    WIND        PRES    WAVE
                       AIR SEA DIR/SP/G            HT/PER
                 (UTC) (F)    C1F1C2F2C3F3C4F4C5F5C6F6C7F7C8M1C9M2Ca!


USA.gov is the U.S. government's official web portal to all federal, state and local government web resources and services.